{"data":{"norad_id":57856,"intl_designator":"2023-141S","name":"STARLINK-30291","alt_names":[],"object_type":"PAYLOAD","status":"ACTIVE","operator":null,"country":"US","launch_date":"2023-09-12","launch_site_code":"AFWTR","launch_vehicle":null,"mission":null,"orbit_class":"UNKNOWN","rcs_meters":null,"size_class":null,"mass_kg":null,"dimensions":null,"purposes":["comms"],"wikipedia_slug":null,"has_3d_model":false,"image_url":null,"decayed_at":null,"tle_current":{"epoch":"2026-09-19T01:04:21.512352Z","epoch_age_seconds":260387,"freshness":"STALE","line1":"1 57856U 23141S   26262.04469343  .00000362  00000+0  23427-4 0  9995","line2":"2 57856  53.1593 104.4427 0001172  85.7629 274.3507 15.31704733169951","mean_motion":15.31704733,"eccentricity":0.0001172,"inclination_deg":53.1593,"raan_deg":104.4427,"arg_perigee_deg":85.7629,"mean_anomaly_deg":274.3507,"bstar":2.3427e-5,"rev_number":16995,"period_min":94.012897458351,"perigee_km":469.92319970497,"apogee_km":471.52857316555,"semimajor_km":6848.8628864353,"source":"CELESTRAK","updated_at":"2026-09-21T09:00:33.714475Z"}}}